Weather History for Gulfport, MS

Change the Weather History Date:

Tuesday, October 8, 2013

  Actual Average Record
Temperature  
Mean Temperature 67 °F -  
Max Temperature 80 °F 81 °F 90 °F (1962)
Min Temperature 55 °F 60 °F 45 °F (1952)
Cooling Degree Days 2    
Growing Degree Days 17 (Base 50)    
Moisture  
Dew Point 55 °F    
Average Humidity 69    
Maximum Humidity 87    
Minimum Humidity 39    
Precipitation  
Precipitation 0.00 in - - ()
Sea Level Pressure  
Sea Level Pressure 30.00 in    
Wind  
Wind Speed 5 mph (North)    
Max Wind Speed 9 mph    
Max Gust Speed -    
Visibility 10 miles    
Events      
Averages and records for this station are not official NWS values.
T = Trace of Precipitation, MM = Missing Value Source: NWS Daily Summary

Daily Weather History Graph

Daily Weather History Graph

Search for Another Location

Airport:

Trip Planner

Search our weather history database for the weather conditions in past years. The results will help you decide how hot, cold, wet, or windy it might be!

Date:

Astronomy

Oct. 08, 2013 Rise Set
Actual Time 6:54 AM CDT 6:32 PM CDT
Civil Twilight 6:30 AM CDT 6:56 PM CDT
Nautical Twilight 6:02 AM CDT 7:24 PM CDT
Astronomical Twilight 5:34 AM CDT 7:52 PM CDT
Moon 10:33 AM CDT (10/8) 9:25 PM CDT (10/8)
Length of Visible Light 12h 26m
Length of Day
11h 38m
Waxing Crescent, 16% of the Moon is Illuminated
Oct 8
Waxing Crescent
Oct 11
First Quarter
Oct 18
Full
Oct 26
Last Quarter
Nov 3
New

Hourly Weather History & Observations

Time (CDT) Temp. Dew Point Humidity Pressure Visibility Wind Dir Wind Speed Gust Speed Precip Events Conditions
12:53 AM 59.0 °F 54.0 °F 83% 30.01 in 10.0 mi WNW 3.5 mph - N/A   Clear
1:53 AM 57.0 °F 53.1 °F 87% 30.00 in 10.0 mi NNW 3.5 mph - N/A   Clear
2:53 AM 57.9 °F 53.1 °F 84% 29.99 in 10.0 mi NNW 9.2 mph - N/A   Clear
3:53 AM 57.9 °F 53.1 °F 84% 30.00 in 10.0 mi NNW 5.8 mph - N/A   Clear
4:53 AM 57.0 °F 53.1 °F 87% 30.00 in 10.0 mi North 6.9 mph - N/A   Clear
5:53 AM 55.9 °F 52.0 °F 87% 30.01 in 10.0 mi NNW 8.1 mph - N/A   Clear
6:53 AM 55.9 °F 52.0 °F 87% 30.01 in 10.0 mi North 6.9 mph - N/A   Clear
7:53 AM 57.9 °F 52.0 °F 81% 30.02 in 10.0 mi North 5.8 mph - N/A   Clear
8:53 AM 62.1 °F 53.1 °F 72% 30.04 in 10.0 mi North 6.9 mph - N/A   Clear
9:53 AM 66.0 °F 54.0 °F 65% 30.04 in 10.0 mi NNW 4.6 mph - N/A   Clear
10:53 AM 70.0 °F 54.0 °F 57% 30.03 in 10.0 mi NNW 4.6 mph - N/A   Clear
11:53 AM 73.0 °F 51.1 °F 46% 30.02 in 10.0 mi Variable 5.8 mph - N/A   Clear
12:53 PM 75.9 °F 53.1 °F 45% 30.00 in 10.0 mi North 5.8 mph - N/A   Clear
1:53 PM 78.1 °F 52.0 °F 40% 29.98 in 10.0 mi Variable 5.8 mph - N/A   Clear
2:53 PM 79.0 °F 52.0 °F 39% 29.98 in 10.0 mi Calm Calm - N/A   Clear
3:53 PM 79.0 °F 53.1 °F 40% 29.97 in 10.0 mi Calm Calm - N/A   Clear
4:53 PM 79.0 °F 53.1 °F 40% 29.97 in 10.0 mi NE 6.9 mph - N/A   Clear
5:53 PM 78.1 °F 55.0 °F 45% 29.98 in 10.0 mi NNE 4.6 mph - N/A   Clear
6:53 PM 70.0 °F 60.1 °F 71% 29.99 in 10.0 mi NNE 3.5 mph - N/A   Clear
7:53 PM 66.9 °F 60.1 °F 79% 29.99 in 10.0 mi Calm Calm - N/A   Clear
8:53 PM 64.0 °F 60.1 °F 87% 30.01 in 10.0 mi Calm Calm - N/A   Clear
9:53 PM 63.0 °F 59.0 °F 87% 30.03 in 10.0 mi Calm Calm - N/A   Clear
10:53 PM 62.1 °F 57.9 °F 86% 30.02 in 10.0 mi Calm Calm - N/A   Clear
11:53 PM 63.0 °F 57.9 °F 84% 30.02 in 10.0 mi Calm Calm - N/A   Clear